Theta_e
346 351 342 336 336 334 331 329 329 330 330 331 331 332 332 332 332 333 333 333 332 333 335 336 335 335 335 334 334 335 337 339 339 340 338 337 333 330 333 337 337 338 338
344 350 343 336 334 332 331 329 329 330 330 331 332 332 332 333 334 334 335 336 336 336 336 337 338 338 339 338 335 334 333 333 334 333 336 341 337 333 330 331 333 337 338
347 351 346 337 333 332 330 330 330 331 332 333 333 333 334 334 334 334 335 335 336 338 340 340 340 340 340 342 340 337 335 334 333 333 335 345 345 338 332 330 331 336 337
349 350 348 337 331 331 331 330 331 332 334 334 334 334 335 335 335 335 336 336 336 338 340 344 343 340 338 337 339 339 339 336 334 333 339 342 345 342 338 331 330 330 334
349 349 348 338 332 331 331 331 331 332 333 334 334 335 336 336 336 335 336 338 339 339 338 338 338 338 338 337 336 333 333 334 335 338 339 339 342 343 342 337 334 331 331
347 347 343 336 333 332 331 331 332 333 334 334 334 335 338 340 341 338 336 336 339 341 342 341 339 339 339 338 337 336 334 333 334 342 342 341 340 340 342 343 335 335 331
345 346 347 335 333 332 331 333 333 334 334 334 337 339 340 340 342 342 342 341 340 338 338 338 337 336 337 337 337 337 337 335 342 343 343 344 343 339 341 344 341 335 334
342 343 344 332 332 332 332 333 333 333 335 338 340 340 337 338 337 339 340 340 336 331 335 337 334 331 331 334 336 336 337 338 343 343 344 344 343 336 337 342 344 340 337
340 339 335 341 334 333 332 333 332 334 336 338 337 335 334 331 329 329 332 336 331 328 333 336 329 327 327 327 330 332 334 336 340 342 343 343 341 339 337 336 340 344 341
340 339 339 334 340 341 339 331 333 335 338 338 334 331 329 328 327 325 323 323 322 322 326 327 327 325 325 324 325 326 328 330 335 337 339 340 339 339 337 338 342 341 344
341 342 341 340 341 341 340 333 335 337 338 337 332 329 329 327 326 325 323 322 322 323 323 323 322 323 322 320 319 320 322 328 331 334 335 333 333 332 334 340 342 342 343
341 340 340 339 339 337 338 338 337 339 343 338 333 331 328 326 326 325 324 323 323 324 323 322 322 321 321 322 321 321 322 324 323 327 329 325 327 328 331 333 335 342 344
341 340 334 334 332 336 341 342 343 343 342 340 332 330 328 326 327 326 326 326 324 323 323 323 325 325 323 323 322 322 321 320 320 320 323 320 321 323 326 331 334 333 336
343 341 340 335 335 337 339 343 345 345 342 338 331 328 328 327 327 327 327 327 326 324 322 322 322 323 321 320 320 321 321 320 320 319 319 317 320 319 318 327 331 335 333
346 345 345 338 339 342 345 344 341 339 338 333 329 327 326 325 325 325 325 325 326 326 325 324 324 322 322 321 321 321 320 320 319 319 319 316 317 316 316 317 325 334 338
345 343 343 343 343 333 333 334 329 327 327 328 326 325 325 325 324 323 323 324 326 325 325 325 324 323 322 322 322 322 321 321 320 320 319 318 315 316 315 315 317 322 334
341 341 339 334 329 327 327 327 327 327 326 325 326 326 326 320 314 313 318 318 319 318 319 321 323 324 324 323 321 320 320 320 321 321 320 319 319 318 316 315 315 318 328
338 335 331 329 329 328 327 326 326 325 326 327 327 325 318 315 314 314 316 317 317 317 317 317 317 320 322 322 321 321 320 320 319 319 318 318 318 318 318 317 315 316 323
338 335 333 329 329 328 327 326 327 327 328 329 328 320 316 315 315 315 317 317 316 316 316 316 316 317 317 318 319 319 320 319 318 316 316 316 316 317 318 318 314 319 323
334 332 331 331 330 329 328 328 328 328 330 329 322 318 317 317 317 317 318 317 315 315 314 314 315 316 317 317 317 316 317 317 316 314 314 314 315 317 318 320 322 323 325
333 331 330 332 332 330 329 331 330 331 330 324 319 318 317 317 317 317 317 316 315 314 314 313 314 315 316 319 319 318 318 316 314 313 314 315 318 319 323 323 323 324 324
333 333 331 332 331 330 332 331 332 330 324 320 318 317 316 317 317 317 316 315 314 313 313 313 313 315 315 316 317 317 318 315 313 315 315 315 318 318 323 323 323 322 324
334 333 332 330 331 330 330 330 328 324 321 321 320 320 318 317 317 315 315 314 314 313 312 312 312 314 314 315 315 315 317 316 314 313 314 316 314 320 320 320 320 322 324
334 332 330 331 331 330 331 329 324 323 322 321 320 319 318 316 314 313 314 314 313 313 312 311 311 311 313 313 313 314 314 313 314 315 313 314 314 316 319 319 318 322 324
333 332 332 331 331 330 328 326 323 323 322 320 318 317 317 315 315 314 313 312 311 311 310 309 309 309 313 312 313 311 312 313 312 313 315 314 315 314 316 318 318 322 322
334 333 334 334 333 330 327 323 321 319 317 318 318 317 316 315 313 311 310 310 310 308 308 308 308 309 312 311 310 310 311 312 313 312 315 314 314 314 316 317 319 319 320
Wind_Speed
11 12 11 11 11 10 10 12 12 12 12 13 13 12 12 12 12 11 11 11 11 10 10 9 9 8 8 8 8 8 8 8 9 9 10 9 9 9 8 7 8 6 7
15 14 13 12 11 10 9 10 11 11 11 11 11 11 11 10 10 10 9 9 9 9 8 8 8 7 7 7 6 6 5 5 6 7 7 7 7 7 6 5 5 3 5
18 16 14 12 11 10 9 9 9 9 9 9 9 9 9 9 9 8 8 8 8 8 8 8 8 7 7 7 7 7 6 5 5 4 5 4 2 5 5 4 2 2 3
17 16 14 14 12 10 8 8 7 8 8 8 8 8 7 7 7 7 7 7 7 7 7 8 8 8 8 7 6 7 8 7 6 5 5 4 4 7 5 4 3 1 2
14 13 13 12 10 9 7 6 6 6 6 6 6 6 6 7 7 6 6 7 7 7 7 7 8 9 9 8 8 8 8 7 7 6 6 5 5 7 9 8 6 4 3
13 12 12 12 10 8 6 5 4 4 4 5 5 6 6 6 6 7 7 7 7 7 6 7 7 8 9 8 8 7 8 8 7 7 7 7 7 10 9 12 10 8 7
14 12 11 11 9 8 6 4 3 2 3 4 4 4 5 6 6 7 7 6 6 7 7 7 7 8 9 9 8 7 6 7 7 7 7 7 7 8 8 14 13 12 11
15 13 11 11 10 8 6 5 3 2 2 2 3 3 5 6 7 7 7 7 8 9 7 7 8 9 10 9 7 8 8 8 7 8 8 9 10 8 9 12 18 17 15
12 13 13 11 10 8 6 5 4 3 2 1 2 4 4 7 9 9 8 8 9 10 8 6 6 7 9 11 10 10 8 7 7 8 9 9 12 11 12 13 20 22 22
12 12 12 12 10 10 8 7 6 5 4 1 2 4 4 6 7 8 9 9 9 10 8 6 6 7 7 11 12 12 12 12 8 7 7 8 8 11 13 15 17 23 25
10 10 11 10 9 9 7 8 6 5 3 2 1 2 1 3 5 6 6 6 8 11 6 6 9 8 8 9 12 13 12 9 8 7 7 8 9 11 12 12 13 19 25
11 10 8 7 7 8 6 7 8 6 4 3 2 2 2 4 7 8 9 11 11 8 8 8 11 11 10 11 12 12 9 8 9 8 7 10 9 10 12 14 11 11 16
9 8 11 9 9 8 6 6 5 5 5 6 5 4 5 7 10 9 12 13 13 11 10 10 9 9 12 12 12 10 8 10 12 12 11 9 10 11 12 13 13 15 14
8 7 8 12 11 10 10 9 8 7 7 6 5 5 7 10 12 12 13 15 14 12 14 14 13 13 14 15 14 11 10 10 13 13 14 11 10 13 14 12 12 14 16
9 8 8 12 12 13 12 11 10 8 7 5 4 5 6 7 10 12 13 13 14 14 13 13 14 14 13 12 12 12 12 12 12 12 12 13 12 12 14 15 15 14 13
8 7 8 13 10 5 8 9 9 6 4 4 3 2 6 10 12 12 12 12 11 11 12 12 13 14 14 13 13 12 12 12 12 12 13 13 14 15 17 18 18 17 14
6 7 6 6 9 9 9 9 7 5 4 4 1 4 7 9 13 14 11 10 11 13 14 14 14 13 12 12 13 13 13 13 12 12 14 14 17 17 21 22 22 21 16
8 9 7 7 9 9 8 6 5 6 4 3 3 4 7 9 13 15 13 12 15 16 16 17 17 18 18 17 17 16 16 15 14 14 15 16 19 20 22 24 24 22 16
7 9 10 10 10 9 7 7 7 6 5 5 5 6 7 9 12 12 11 13 17 17 18 18 18 16 20 21 21 21 19 17 16 16 17 19 22 23 23 25 24 18 16
6 9 11 11 11 9 8 8 9 8 11 8 6 7 7 7 9 11 10 13 17 18 19 18 19 19 18 19 21 23 21 18 15 17 18 20 20 21 21 20 16 15 14
6 10 12 13 14 12 10 9 10 14 11 8 6 7 9 9 11 14 12 14 16 16 17 18 19 17 16 12 13 15 14 12 14 19 16 11 12 11 15 11 11 10 12
5 7 11 14 16 14 12 14 11 11 7 6 8 9 10 12 14 12 14 16 15 17 17 18 17 17 16 13 10 12 8 11 14 8 11 11 8 9 8 7 7 8 5
5 5 8 10 14 13 13 12 10 10 7 7 8 8 10 15 15 16 15 15 14 15 18 19 19 17 18 15 11 9 6 8 10 9 8 5 9 6 5 5 6 2 4
7 6 8 12 13 12 11 9 9 7 10 9 11 12 15 15 17 17 14 15 17 18 20 21 19 20 17 14 9 9 9 8 5 6 6 6 6 6 4 4 3 3 4
8 8 9 10 9 9 9 10 9 9 9 11 12 14 15 15 15 15 17 21 20 19 20 22 21 20 18 15 9 7 6 8 9 8 9 7 5 4 6 5 3 3 3
8 8 7 6 7 9 10 9 11 11 13 13 14 15 16 18 19 20 20 17 16 19 20 20 19 19 16 13 12 12 12 9 6 7 6 10 9 8 5 2 1 1 2
Wind_Direction
156 153 158 148 139 126 114 107 104 102 100 97 93 89 83 79 75 69 64 63 61 57 52 51 48 48 45 46 49 49 47 41 32 23 24 27 39 38 51 58 66 65 80
173 159 162 154 147 135 122 117 114 108 101 94 89 84 79 75 70 65 62 56 49 47 45 41 38 32 26 21 19 22 19 14 12 8 3 0 5 19 23 37 72 85 97
146 155 159 158 154 146 135 125 113 106 97 91 84 78 72 66 62 55 47 46 39 32 24 20 17 12 11 5 358 354 354 350 347 343 345 347 314 332 346 355 23 89 124
151 156 160 162 160 152 141 130 117 102 91 80 71 63 57 52 50 47 36 31 27 24 15 5 358 354 350 347 345 338 336 335 328 320 324 318 316 297 282 292 297 225 181
154 159 164 162 158 156 149 135 120 104 89 76 65 56 48 39 31 31 33 29 29 28 20 9 3 351 343 337 331 328 324 322 317 321 302 297 294 298 267 257 255 258 214
158 162 167 167 165 158 153 140 121 95 84 70 57 48 43 42 37 32 22 21 12 8 2 1 355 348 339 334 326 322 320 316 314 295 297 298 298 279 273 242 244 245 249
161 166 165 170 173 165 156 149 126 111 81 79 76 57 30 17 13 13 14 23 17 357 354 352 354 346 340 336 334 332 327 314 300 288 288 294 290 287 285 240 242 246 245
166 167 173 175 175 175 166 161 162 130 88 69 57 47 27 33 23 13 9 8 8 354 353 359 358 5 5 357 340 333 326 320 302 283 282 281 280 286 279 254 251 248 245
170 173 178 178 181 183 176 178 174 167 148 88 27 31 34 45 42 26 14 10 3 355 347 354 17 21 12 3 359 348 337 318 312 294 287 279 269 278 281 276 250 247 249
182 185 184 182 184 186 189 180 178 174 174 145 37 38 61 55 41 20 12 8 350 341 328 342 344 347 357 353 347 339 329 330 321 314 304 297 290 280 287 286 269 247 244
197 197 194 195 194 195 192 184 185 186 207 209 37 28 97 22 6 1 349 340 332 343 320 328 330 319 328 345 342 334 334 332 329 325 309 303 307 288 283 294 274 264 249
201 200 199 203 207 204 198 196 195 200 224 254 269 283 297 311 326 320 322 315 314 294 288 302 311 308 303 314 319 323 321 323 327 333 320 332 327 310 293 282 290 281 248
205 201 207 206 199 203 211 207 210 219 229 245 254 263 276 299 313 309 307 315 303 285 281 279 279 281 290 298 302 298 293 300 310 306 302 320 326 332 325 311 286 279 264
218 214 216 216 206 211 226 228 228 235 227 230 238 273 299 312 323 320 314 310 305 296 289 282 276 262 269 276 280 275 279 285 294 298 293 298 302 317 322 321 306 301 277
221 228 214 217 223 227 236 238 222 212 216 221 242 290 315 336 339 334 326 322 314 305 299 292 285 277 271 263 266 265 266 274 269 280 280 281 291 304 310 310 299 306 300
219 238 220 215 229 201 185 169 169 174 172 216 258 331 351 350 344 337 332 324 319 317 312 306 295 285 274 267 267 267 273 271 270 268 272 274 276 296 301 307 301 289 291
202 197 198 180 167 173 168 170 182 197 216 223 282 334 332 336 337 334 327 318 318 319 316 308 302 296 285 273 267 269 273 274 272 276 280 274 277 283 293 294 297 289 275
196 187 173 177 180 183 187 195 215 219 226 253 286 313 330 334 337 338 331 324 324 324 319 309 300 289 283 277 275 275 277 275 276 283 283 284 280 277 281 289 290 283 267
208 202 199 200 205 209 213 221 230 243 255 269 285 298 305 319 332 332 323 322 327 323 318 313 306 298 285 276 273 274 274 274 277 283 285 285 280 276 273 275 274 260 259
196 198 206 213 217 218 220 227 241 250 264 256 260 276 304 318 329 332 323 322 323 319 315 314 310 299 291 286 279 275 273 274 275 290 290 289 278 269 263 261 256 250 250
203 213 217 218 218 219 216 231 250 262 250 265 272 295 318 325 330 326 322 322 321 317 317 319 310 308 306 297 281 270 271 266 287 296 289 300 278 279 259 252 236 242 257
198 215 219 219 224 226 233 247 255 266 272 290 313 328 325 327 324 322 316 317 313 315 316 323 313 299 293 286 288 292 279 279 290 307 289 294 291 299 249 209 220 233 260
239 238 234 235 235 240 253 261 278 299 305 325 331 327 322 321 316 314 312 311 307 304 307 315 314 298 290 283 273 278 285 284 320 295 309 285 344 317 281 247 230 263 297
267 271 267 248 247 250 248 272 303 313 315 315 318 318 323 316 315 317 314 312 311 304 298 304 302 300 281 274 290 265 259 271 299 295 295 312 322 331 333 297 301 333 353
272 267 274 265 249 252 284 304 309 310 311 311 316 318 316 315 316 317 316 312 309 304 303 305 306 304 280 267 265 275 274 262 261 263 287 300 317 345 327 308 318 339 340
274 270 268 265 262 287 301 302 307 311 313 320 321 318 317 317 317 317 315 311 305 304 304 305 303 302 281 262 266 270 263 267 276 249 274 281 290 301 311 297 356 358 341